FW4469 Weather Reports


time (UTC)temp
C
wind
direction
speed
KPH
gust
KPH
rain 1hr
cm
rain 24hr
cm
rain mn
cm
humidity
%
barometer
mb
20260507074008 5 307 6.4 12.9 0.00 0.00 0.00 95 1015.7
20260507073008 5 316 6.4 12.9 0.00 0.00 0.00 96 1015.7
20260507072008 5 308 6.4 14.5 0.00 0.00 0.00 97 1015.7
20260507071003 5 324 8.0 19.3 0.00 0.00 0.00 97 1015.6
20260507070222 5 329 8.0 17.7 0.00 0.00 0.00 98 1015.5
20260507065003 5 301 4.8 11.3 0.00 0.00 0.00 98 1015.5
20260507064003 5 304 4.8 11.3 0.00 0.00 0.00 98 1015.5
20260507063008 4 324 4.8 11.3 0.00 0.00 0.00 98 1015.3
20260507062217 4 259 6.4 14.5 0.00 0.00 0.00 98 1015.3
20260507061003 4 310 3.2 9.7 0.00 0.00 0.00 98 1015.5
20260507060221 4 321 3.2 8.0 0.00 0.00 0.00 98 1015.3
20260507055008 4 249 6.4 16.1 0.00 0.00 0.00 98 1015.1
20260507054008 4 309 6.4 11.3 0.00 0.00 0.00 98 1015.3
20260507053004 4 316 6.4 14.5 0.00 0.00 0.00 98 1015.5
20260507052003 4 301 4.8 11.3 0.00 0.00 0.00 98 1015.3
20260507051223 4 287 4.8 16.1 0.00 0.00 0.00 98 1015.5
20260507050003 4 332 8.0 17.7 0.00 0.00 0.00 98 1015.3
20260507045003 4 335 9.7 17.7 0.00 0.00 0.00 98 1015.1
20260507044008 4 327 8.0 17.7 0.00 0.00 0.00 98 1015.2
20260507043008 4 308 6.4 11.3 0.00 0.00 0.00 98 1015.1
20260507042003 4 320 6.4 12.9 0.00 0.00 0.00 98 1015.1
20260507041003 4 307 4.8 9.7 0.00 0.00 0.00 98 1015.1
20260507040222 4 312 6.4 9.7 0.00 0.00 0.00 98 1015.1
20260507035003 4 314 6.4 9.7 0.00 0.00 0.00 97 1015.3
20260507034003 4 318 6.4 11.3 0.00 0.00 0.00 97 1015.1
20260507033216 4 317 6.4 11.3 0.00 0.00 0.00 97 1015.0
20260507032003 4 318 6.4 11.3 0.00 0.00 0.00 97 1015.1
20260507031008 4 316 6.4 9.7 0.00 0.00 0.00 97 1015.1
20260507030218 4 319 6.4 11.3 0.00 0.00 0.00 97 1015.2
20260507025003 4 318 6.4 11.3 0.00 0.00 0.00 97 1015.3
20260507024003 4 318 6.4 11.3 0.00 0.00 0.00 97 1015.2
20260507023008 4 316 6.4 9.7 0.00 0.00 0.00 97 1015.2
20260507022003 4 317 6.4 9.7 0.00 0.00 0.00 97 1015.0
20260507021008 4 315 6.4 9.7 0.00 0.00 0.00 97 1015.0
20260507020218 4 317 6.4 11.3 0.00 0.00 0.00 97 1015.3
20260507015008 3 316 6.4 9.7 0.00 0.00 0.00 97 1015.5
20260507014003 3 317 6.4 11.3 0.00 0.00 0.00 96 1015.5
20260507013008 3 316 6.4 11.3 0.00 0.00 0.00 96 1015.3
20260507012003 3 317 6.4 8.0 0.00 0.00 0.00 95 1015.6
20260507010003 3 313 6.4 11.3 0.00 0.00 0.00 95 1015.5
20260507005003 4 310 6.4 12.9 0.00 0.00 0.00 94 1015.3
20260507004008 4 312 6.4 11.3 0.00 0.00 0.00 94 1015.5
20260507003003 4 308 6.4 11.3 0.00 0.00 0.00 93 1015.5
20260507002008 4 308 6.4 9.7 0.00 0.00 0.00 93 1015.7
20260507001223 4 308 6.4 9.7 0.00 0.00 0.00 92 1015.6
20260507000003 5 312 6.4 11.3 0.00 0.00 0.00 92 1015.8
20260506235008 5 305 6.4 11.3 0.00 0.00 0.00 92 1015.5
20260506234008 5 308 6.4 12.9 0.00 0.00 0.00 91 1015.7
20260506233003 5 313 6.4 12.9 0.00 0.03 0.00 91 1015.7
20260506232008 5 308 6.4 11.3 0.00 0.03 0.00 90 1015.5
20260506231008 5 310 6.4 12.9 0.00 0.03 0.00 90 1015.6
20260506230217 5 314 6.4 11.3 0.00 0.03 0.00 90 1015.6
20260506225008 5 308 6.4 11.3 0.00 0.03 0.03 89 1015.5
20260506224008 5 308 6.4 14.5 0.00 0.03 0.03 89 1015.7
20260506223003 5 312 6.4 11.3 0.00 0.03 0.03 89 1015.6
20260506222008 5 311 6.4 11.3 0.00 0.03 0.03 89 1015.5
20260506221003 5 309 6.4 11.3 0.00 0.03 0.03 88 1015.7
20260506220003 5 312 6.4 11.3 0.00 0.03 0.03 88 1015.5
20260506215222 5 313 6.4 11.3 0.00 0.03 0.03 88 1015.5
20260506214003 5 312 6.4 9.7 0.00 0.03 0.03 88 1015.5
20260506213222 5 311 6.4 9.7 0.00 0.03 0.03 88 1015.2
20260506212008 5 310 6.4 8.0 0.00 0.03 0.03 87 1015.2
20260506211013 5 311 6.4 9.7 0.00 0.03 0.03 87 1015.0
20260506210003 5 312 6.4 9.7 0.00 0.03 0.03 87 1015.2
20260506205218 5 313 6.4 8.0 0.00 0.03 0.03 86 1014.9
20260506204008 5 313 4.8 9.7 0.00 0.03 0.03 85 1014.9
20260506203003 5 312 4.8 8.0 0.00 0.03 0.03 83 1014.7
20260506202222 5 312 4.8 9.7 0.00 0.03 0.03 82 1014.9
20260506201008 6 313 4.8 8.0 0.00 0.03 0.03 79 1014.8
20260506200008 6 314 4.8 11.3 0.00 0.03 0.03 78 1014.7
20260506195221 6 312 4.8 8.0 0.00 0.03 0.03 76 1014.5
20260506194008 7 314 6.4 9.7 0.00 0.03 0.03 73 1014.4
20260506193221 7 315 6.4 12.9 0.00 0.03 0.03 72 1014.4
20260506192008 7 311 6.4 11.3 0.00 0.03 0.03 71 1014.3
20260506191224 8 311 6.4 11.3 0.00 0.03 0.03 69 1014.3
20260506190223 8 311 6.4 12.9 0.00 0.03 0.03 67 1014.5
20260506185013 8 312 6.4 9.7 0.00 0.03 0.03 68 1014.2
20260506184003 8 309 6.4 11.3 0.00 0.03 0.03 65 1014.2
20260506183008 9 308 6.4 11.3 0.00 0.03 0.03 62 1014.2
20260506182008 9 307 6.4 12.9 0.00 0.03 0.03 59 1014.1
20260506181003 10 305 6.4 9.7 0.00 0.03 0.03 60 1014.3
20260506180217 10 307 6.4 12.9 0.00 0.03 0.03 58 1014.3
20260506175003 10 307 6.4 11.3 0.00 0.03 0.03 58 1014.4
20260506174008 10 306 6.4 14.5 0.00 0.03 0.03 61 1014.3
20260506173003 10 304 6.4 12.9 0.00 0.03 0.03 56 1014.2
20260506172008 10 302 6.4 14.5 0.00 0.03 0.03 57 1014.0
20260506171216 10 303 6.4 11.3 0.00 0.03 0.03 53 1014.0
20260506170008 10 303 6.4 12.9 0.00 0.03 0.03 53 1013.9
20260506165003 11 306 8.0 16.1 0.00 0.03 0.03 54 1014.1
20260506164003 11 307 8.0 16.1 0.00 0.03 0.03 56 1014.1
20260506163003 11 300 8.0 12.9 0.00 0.03 0.03 55 1014.0
20260506162008 12 310 8.0 14.5 0.00 0.03 0.03 52 1014.0
20260506161008 13 297 8.0 12.9 0.00 0.03 0.03 48 1014.0
20260506160218 13 298 8.0 12.9 0.00 0.03 0.03 45 1013.9
20260506155003 12 306 6.4 11.3 0.00 0.03 0.03 57 1014.2
20260506154008 11 302 8.0 16.1 0.00 0.03 0.03 53 1014.1
20260506153003 12 302 8.0 16.1 0.00 0.03 0.03 52 1014.2
20260506152008 12 305 8.0 12.9 0.00 0.03 0.03 50 1014.1
20260506151003 11 305 8.0 14.5 0.00 0.03 0.03 53 1014.3
20260506150003 13 299 8.0 16.1 0.00 0.03 0.03 48 1014.2
20260506145003 11 306 9.7 19.3 0.00 0.03 0.03 56 1014.3
20260506144008 13 298 8.0 14.5 0.00 0.03 0.03 52 1014.1
20260506143008 12 307 8.0 14.5 0.00 0.03 0.03 57 1014.3
20260506142003 11 307 8.0 14.5 0.00 0.03 0.03 53 1014.3
20260506141003 11 298 8.0 14.5 0.00 0.03 0.03 57 1014.4
20260506140008 12 306 8.0 16.1 0.00 0.03 0.03 52 1014.4
20260506135223 13 302 9.7 16.1 0.00 0.03 0.03 51 1014.4
20260506134003 10 300 8.0 14.5 0.00 0.03 0.03 58 1014.6
20260506133008 11 304 9.7 16.1 0.00 0.03 0.03 58 1014.8
20260506132217 12 304 9.7 19.3 0.00 0.03 0.03 52 1014.6
20260506131008 12 301 9.7 16.1 0.00 0.03 0.03 53 1014.5
20260506130004 13 307 9.7 16.1 0.00 0.03 0.03 54 1014.6
20260506125003 12 309 9.7 17.7 0.00 0.03 0.03 62 1014.6
20260506124004 12 305 9.7 16.1 0.00 0.03 0.03 55 1014.7
20260506123223 12 311 9.7 17.7 0.00 0.03 0.03 59 1014.6
20260506122223 12 299 8.0 16.1 0.00 0.03 0.03 61 1014.7
20260506121008 11 311 9.7 19.3 0.00 0.03 0.03 59 1014.7
20260506120008 11 303 8.0 17.7 0.00 0.03 0.03 61 1014.9
20260506115003 11 310 8.0 16.1 0.00 0.03 0.03 68 1014.8
20260506114003 11 315 8.0 16.1 0.00 0.03 0.03 62 1015.0
20260506113004 10 308 8.0 14.5 0.00 0.03 0.03 64 1015.0
20260506112003 10 312 8.0 14.5 0.00 0.03 0.03 64 1014.9
20260506111008 10 315 8.0 16.1 0.00 0.03 0.03 67 1015.0
20260506110003 9 311 8.0 16.1 0.00 0.03 0.03 64 1014.9
20260506105003 9 308 8.0 14.5 0.00 0.03 0.03 69 1014.9
20260506104008 8 311 8.0 14.5 0.00 0.03 0.03 73 1015.2
20260506103004 8 311 8.0 16.1 0.00 0.03 0.03 75 1015.1
20260506102008 7 308 9.7 17.7 0.00 0.03 0.03 75 1015.2
20260506101003 7 310 9.7 14.5 0.00 0.03 0.03 76 1015.1
20260506100218 6 309 8.0 12.9 0.00 0.03 0.03 74 1015.1
20260506095003 6 305 8.0 12.9 0.00 0.03 0.03 74 1015.2
20260506094008 6 308 8.0 12.9 0.00 0.03 0.03 77 1015.0
20260506093008 6 307 8.0 12.9 0.00 0.03 0.03 77 1015.0
20260506092217 6 307 6.4 12.9 0.00 0.03 0.03 77 1015.1
20260506091222 6 310 6.4 12.9 0.00 0.03 0.03 78 1015.1
20260506090003 6 312 6.4 12.9 0.00 0.03 0.03 78 1015.1
20260506085004 6 307 8.0 14.5 0.00 0.03 0.03 77 1015.1
20260506084003 6 309 8.0 16.1 0.00 0.03 0.03 77 1015.0
20260506083003 6 309 8.0 12.9 0.00 0.03 0.03 77 1014.9
20260506082003 6 305 8.0 16.1 0.00 0.03 0.03 77 1014.8
20260506081008 6 309 8.0 17.7 0.00 0.03 0.03 77 1014.8